Time,TemperatureF,DewpointF,PressureIn,WindDirection,WindDirectionDegrees,WindSpeedMPH,WindSpeedGustMPH,Humidity,HourlyPrecipIn,Conditions,Clouds,dailyrainin,SolarRadiationWatts/m^2,SoftwareType,DateUTC
2013-01-01 00:02:00,54.0,53.0,-100.00,North,0,4.0,8.0,97,0.14,,,-99.99,0.000000,,2013-01-01 06:02:00,
2013-01-01 00:33:00,54.0,53.0,-100.00,North,4,3.0,7.0,97,0.03,,,-99.99,0.000000,,2013-01-01 06:33:00,
2013-01-01 00:42:00,54.0,53.0,-100.00,North,4,3.0,7.0,97,0.03,,,-99.99,0.000000,,2013-01-01 06:42:00,
2013-01-01 00:52:00,54.0,53.0,-100.00,North,4,3.0,7.0,97,0.03,,,-99.99,0.000000,,2013-01-01 06:52:00,
2013-01-01 01:02:00,54.0,53.0,-100.00,North,4,3.0,7.0,97,0.03,,,-99.99,0.000000,,2013-01-01 07:02:00,
2013-01-01 01:22:00,54.0,53.0,-100.00,NNW,328,2.0,8.0,97,0.06,,,-99.99,0.000000,,2013-01-01 07:22:00,
2013-01-01 01:32:00,54.0,53.0,-100.00,NNW,328,2.0,8.0,97,0.06,,,-99.99,0.000000,,2013-01-01 07:32:00,
2013-01-01 01:42:00,54.0,53.0,-100.00,NNW,328,2.0,8.0,97,0.06,,,-99.99,0.000000,,2013-01-01 07:42:00,
2013-01-01 01:52:00,54.0,53.0,-100.00,NNW,328,2.0,8.0,97,0.06,,,-99.99,0.000000,,2013-01-01 07:52:00,
2013-01-01 02:02:00,54.0,53.0,-100.00,NNW,328,2.0,8.0,97,0.06,,,-99.99,0.000000,,2013-01-01 08:02:00,
2013-01-01 02:32:00,54.0,53.0,-100.00,NNW,342,7.0,11.0,96,0.01,,,-99.99,0.000000,,2013-01-01 08:32:00,
2013-01-01 02:42:00,54.0,53.0,-100.00,NNW,342,7.0,11.0,96,0.01,,,-99.99,0.000000,,2013-01-01 08:42:00,
2013-01-01 02:53:00,54.0,53.0,-100.00,NNW,342,7.0,11.0,96,0.01,,,-99.99,0.000000,,2013-01-01 08:53:00,
2013-01-01 03:02:00,54.0,53.0,-100.00,NNW,342,7.0,11.0,96,0.01,,,-99.99,0.000000,,2013-01-01 09:02:00,
2013-01-01 03:22:00,53.0,50.0,-100.00,North,355,5.0,13.0,91,0.00,,,-99.99,0.000000,,2013-01-01 09:22:00,
2013-01-01 03:32:00,53.0,50.0,-100.00,North,355,5.0,13.0,91,0.00,,,-99.99,0.000000,,2013-01-01 09:32:00,
2013-01-01 03:42:00,53.0,50.0,-100.00,North,355,5.0,13.0,91,0.00,,,-99.99,0.000000,,2013-01-01 09:42:00,
2013-01-01 03:52:00,53.0,50.0,-100.00,North,355,5.0,13.0,91,0.00,,,-99.99,0.000000,,2013-01-01 09:52:00,
2013-01-01 04:02:00,53.0,50.0,-100.00,North,355,5.0,13.0,91,0.00,,,-99.99,0.000000,,2013-01-01 10:02:00,
2013-01-01 04:33:00,52.0,49.0,-100.00,NNE,32,6.0,12.0,91,0.00,,,-99.99,0.000000,,2013-01-01 10:33:00,
2013-01-01 04:43:00,52.0,49.0,-100.00,NNE,32,6.0,12.0,91,0.00,,,-99.99,0.000000,,2013-01-01 10:43:00,
2013-01-01 04:53:00,52.0,49.0,-100.00,NNE,32,6.0,12.0,91,0.00,,,-99.99,0.000000,,2013-01-01 10:53:00,
2013-01-01 05:02:00,52.0,49.0,-100.00,NNE,32,6.0,12.0,91,0.00,,,-99.99,0.000000,,2013-01-01 11:02:00,
2013-01-01 05:23:00,52.0,50.0,-100.00,NNE,28,4.0,10.0,93,0.01,,,-99.99,0.000000,,2013-01-01 11:23:00,
2013-01-01 05:33:00,52.0,50.0,-100.00,NNE,28,4.0,10.0,93,0.01,,,-99.99,0.000000,,2013-01-01 11:33:00,
2013-01-01 05:43:00,52.0,50.0,-100.00,NNE,28,4.0,10.0,93,0.01,,,-99.99,0.000000,,2013-01-01 11:43:00,
2013-01-01 05:53:00,52.0,50.0,-100.00,NNE,28,4.0,10.0,93,0.01,,,-99.99,0.000000,,2013-01-01 11:53:00,
2013-01-01 06:02:00,52.0,50.0,-100.00,NNE,28,4.0,10.0,93,0.01,,,-99.99,0.000000,,2013-01-01 12:02:00,
2013-01-01 06:33:00,51.0,49.0,-100.00,North,1,5.0,8.0,93,0.00,,,-99.99,0.000000,,2013-01-01 12:33:00,
2013-01-01 06:43:00,51.0,49.0,-100.00,North,1,5.0,8.0,93,0.00,,,-99.99,0.000000,,2013-01-01 12:43:00,
2013-01-01 06:53:00,51.0,49.0,-100.00,North,1,5.0,8.0,93,0.00,,,-99.99,0.000000,,2013-01-01 12:53:00,
2013-01-01 07:02:00,51.0,49.0,-100.00,North,1,5.0,8.0,93,0.00,,,-99.99,0.000000,,2013-01-01 13:02:00,
2013-01-01 07:33:00,50.0,48.0,-100.00,NNW,345,7.0,11.0,93,0.00,,,-99.99,0.000000,,2013-01-01 13:33:00,
2013-01-01 07:43:00,50.0,48.0,-100.00,NNW,345,7.0,11.0,93,0.00,,,-99.99,0.000000,,2013-01-01 13:43:00,
2013-01-01 07:53:00,50.0,48.0,-100.00,NNW,345,7.0,11.0,93,0.00,,,-99.99,0.000000,,2013-01-01 13:53:00,
2013-01-01 08:02:00,50.0,48.0,-100.00,NNW,345,7.0,11.0,93,0.00,,,-99.99,0.000000,,2013-01-01 14:02:00,
2013-01-01 08:03:00,50.0,48.0,-100.00,North,356,6.0,14.0,93,0.00,,,-99.99,7.000000,,2013-01-01 14:03:00,
2013-01-01 08:33:00,50.0,48.0,-100.00,North,356,6.0,14.0,93,0.00,,,-99.99,7.000000,,2013-01-01 14:33:00,
2013-01-01 08:43:00,50.0,48.0,-100.00,North,356,6.0,14.0,93,0.00,,,-99.99,7.000000,,2013-01-01 14:43:00,
2013-01-01 08:53:00,50.0,48.0,-100.00,North,356,6.0,14.0,93,0.00,,,-99.99,7.000000,,2013-01-01 14:53:00,
2013-01-01 09:33:00,49.0,47.0,-100.00,NNW,344,8.0,12.0,92,0.00,,,-99.99,18.000000,,2013-01-01 15:33:00,
2013-01-01 09:43:00,49.0,47.0,-100.00,NNW,344,8.0,12.0,92,0.00,,,-99.99,18.000000,,2013-01-01 15:43:00,
2013-01-01 09:53:00,49.0,47.0,-100.00,NNW,344,8.0,12.0,92,0.00,,,-99.99,18.000000,,2013-01-01 15:53:00,
2013-01-01 10:02:00,49.0,47.0,-100.00,NNW,344,8.0,12.0,92,0.00,,,-99.99,18.000000,,2013-01-01 16:02:00,
2013-01-01 10:33:00,48.0,46.0,-100.00,NNW,335,10.0,17.0,93,0.00,,,-99.99,32.000000,,2013-01-01 16:33:00,
2013-01-01 10:43:00,48.0,46.0,-100.00,NNW,335,10.0,17.0,93,0.00,,,-99.99,32.000000,,2013-01-01 16:43:00,
2013-01-01 10:53:00,48.0,46.0,-100.00,NNW,335,10.0,17.0,93,0.00,,,-99.99,32.000000,,2013-01-01 16:53:00,
2013-01-01 11:02:00,48.0,46.0,-100.00,NNW,335,10.0,17.0,93,0.00,,,-99.99,32.000000,,2013-01-01 17:02:00,
2013-01-01 11:03:00,47.0,45.0,-100.00,NNW,338,8.0,17.0,91,0.00,,,-99.99,64.000000,,2013-01-01 17:03:00,
2013-01-01 11:33:00,47.0,45.0,-100.00,NNW,338,8.0,17.0,91,0.00,,,-99.99,64.000000,,2013-01-01 17:33:00,
2013-01-01 11:43:00,47.0,45.0,-100.00,NNW,338,8.0,17.0,91,0.00,,,-99.99,64.000000,,2013-01-01 17:43:00,
2013-01-01 11:53:00,47.0,45.0,-100.00,NNW,338,8.0,17.0,91,0.00,,,-99.99,64.000000,,2013-01-01 17:53:00,
2013-01-01 12:33:00,48.0,45.0,-100.00,NNE,18,5.0,14.0,89,0.00,,,-99.99,125.000000,,2013-01-01 18:33:00,
2013-01-01 12:43:00,48.0,45.0,-100.00,NNE,18,5.0,14.0,89,0.00,,,-99.99,125.000000,,2013-01-01 18:43:00,
2013-01-01 12:53:00,48.0,45.0,-100.00,NNE,18,5.0,14.0,89,0.00,,,-99.99,125.000000,,2013-01-01 18:53:00,
2013-01-01 13:02:00,48.0,45.0,-100.00,NNE,18,5.0,14.0,89,0.00,,,-99.99,125.000000,,2013-01-01 19:02:00,
2013-01-01 13:33:00,49.0,45.0,-100.00,NW,323,7.0,10.0,85,0.00,,,-99.99,147.000000,,2013-01-01 19:33:00,
2013-01-01 13:43:00,49.0,45.0,-100.00,NW,323,7.0,10.0,85,0.00,,,-99.99,147.000000,,2013-01-01 19:43:00,
2013-01-01 13:53:00,49.0,45.0,-100.00,NW,323,7.0,10.0,85,0.00,,,-99.99,147.000000,,2013-01-01 19:53:00,
2013-01-01 14:02:00,49.0,45.0,-100.00,NW,323,7.0,10.0,85,0.00,,,-99.99,147.000000,,2013-01-01 20:02:00,
2013-01-01 14:03:00,51.0,45.0,-100.00,NNW,345,10.0,15.0,80,0.00,,,-99.99,231.000000,,2013-01-01 20:03:00,
2013-01-01 14:23:00,51.0,45.0,-100.00,NNW,345,10.0,15.0,80,0.00,,,-99.99,231.000000,,2013-01-01 20:23:00,
2013-01-01 14:32:00,51.0,45.0,-100.00,NNW,345,10.0,15.0,80,0.00,,,-99.99,231.000000,,2013-01-01 20:32:00,
2013-01-01 14:42:00,51.0,45.0,-100.00,NNW,345,10.0,15.0,80,0.00,,,-99.99,231.000000,,2013-01-01 20:42:00,
2013-01-01 14:53:00,51.0,45.0,-100.00,NNW,345,10.0,15.0,80,0.00,,,-99.99,231.000000,,2013-01-01 20:53:00,
2013-01-01 15:33:00,50.0,44.0,-100.00,NNW,342,9.0,17.0,79,0.00,,,-99.99,154.000000,,2013-01-01 21:33:00,
2013-01-01 15:42:00,50.0,44.0,-100.00,NNW,342,9.0,17.0,79,0.00,,,-99.99,154.000000,,2013-01-01 21:42:00,
2013-01-01 15:53:00,50.0,44.0,-100.00,NNW,342,9.0,17.0,79,0.00,,,-99.99,154.000000,,2013-01-01 21:53:00,
2013-01-01 16:02:00,50.0,44.0,-100.00,NNW,342,9.0,17.0,79,0.00,,,-99.99,154.000000,,2013-01-01 22:02:00,
2013-01-01 16:33:00,49.0,43.0,-100.00,NNW,337,11.0,19.0,80,0.00,,,-99.99,95.000000,,2013-01-01 22:33:00,
2013-01-01 16:43:00,49.0,43.0,-100.00,NNW,337,11.0,19.0,80,0.00,,,-99.99,95.000000,,2013-01-01 22:43:00,
2013-01-01 16:52:00,49.0,43.0,-100.00,NNW,337,11.0,19.0,80,0.00,,,-99.99,95.000000,,2013-01-01 22:52:00,
2013-01-01 17:02:00,49.0,43.0,-100.00,NNW,337,11.0,19.0,80,0.00,,,-99.99,95.000000,,2013-01-01 23:02:00,
2013-01-01 17:22:00,48.0,42.0,-100.00,NNW,340,9.0,18.0,79,0.00,,,-99.99,38.000000,,2013-01-01 23:22:00,
2013-01-01 17:33:00,48.0,42.0,-100.00,NNW,340,9.0,18.0,79,0.00,,,-99.99,38.000000,,2013-01-01 23:33:00,
2013-01-01 17:42:00,48.0,42.0,-100.00,NNW,340,9.0,18.0,79,0.00,,,-99.99,38.000000,,2013-01-01 23:42:00,
2013-01-01 17:53:00,48.0,42.0,-100.00,NNW,340,9.0,18.0,79,0.00,,,-99.99,38.000000,,2013-01-01 23:53:00,
2013-01-01 18:02:00,48.0,42.0,-100.00,NNW,340,9.0,18.0,79,0.00,,,-99.99,38.000000,,2013-01-02 00:02:00,
2013-01-01 18:32:00,47.0,41.0,-100.00,NNW,339,9.0,17.0,80,0.00,,,1.08,2.000000,,2013-01-02 00:32:00,
2013-01-01 18:43:00,47.0,41.0,-100.00,NNW,339,9.0,17.0,80,0.00,,,1.08,2.000000,,2013-01-02 00:43:00,
2013-01-01 18:53:00,47.0,41.0,-100.00,NNW,339,9.0,17.0,80,0.00,,,1.08,2.000000,,2013-01-02 00:53:00,
2013-01-01 19:02:00,47.0,41.0,-100.00,NNW,339,9.0,17.0,80,0.00,,,1.08,2.000000,,2013-01-02 01:02:00,
2013-01-01 19:22:00,46.0,40.0,-100.00,NNW,344,10.0,17.0,79,0.00,,,1.04,0.000000,,2013-01-02 01:22:00,
2013-01-01 19:33:00,46.0,40.0,-100.00,NNW,344,10.0,17.0,79,0.00,,,1.04,0.000000,,2013-01-02 01:33:00,
2013-01-01 19:42:00,46.0,40.0,-100.00,NNW,344,10.0,17.0,79,0.00,,,1.04,0.000000,,2013-01-02 01:42:00,
2013-01-01 19:52:00,46.0,40.0,-100.00,NNW,344,10.0,17.0,79,0.00,,,1.04,0.000000,,2013-01-02 01:52:00,
2013-01-01 20:02:00,46.0,40.0,-100.00,NNW,344,10.0,17.0,79,0.00,,,1.04,0.000000,,2013-01-02 02:02:00,
2013-01-01 20:22:00,45.0,39.0,-100.00,NNW,337,7.0,14.0,79,0.00,,,0.99,0.000000,,2013-01-02 02:22:00,
2013-01-01 20:32:00,45.0,39.0,-100.00,NNW,337,7.0,14.0,79,0.00,,,0.99,0.000000,,2013-01-02 02:32:00,
2013-01-01 20:43:00,45.0,39.0,-100.00,NNW,337,7.0,14.0,79,0.00,,,0.99,0.000000,,2013-01-02 02:43:00,
2013-01-01 20:53:00,45.0,39.0,-100.00,NNW,337,7.0,14.0,79,0.00,,,0.99,0.000000,,2013-01-02 02:53:00,
2013-01-01 21:02:00,45.0,39.0,-100.00,NNW,337,7.0,14.0,79,0.00,,,0.99,0.000000,,2013-01-02 03:02:00,
2013-01-01 21:32:00,45.0,39.0,-100.00,NNW,348,9.0,15.0,78,0.00,,,0.65,0.000000,,2013-01-02 03:32:00,
2013-01-01 21:42:00,45.0,39.0,-100.00,NNW,348,9.0,15.0,78,0.00,,,0.65,0.000000,,2013-01-02 03:42:00,
2013-01-01 21:53:00,45.0,39.0,-100.00,NNW,348,9.0,15.0,78,0.00,,,0.65,0.000000,,2013-01-02 03:53:00,
2013-01-01 22:02:00,45.0,39.0,-100.00,NNW,348,9.0,15.0,78,0.00,,,0.65,0.000000,,2013-01-02 04:02:00,
2013-01-01 22:03:00,44.0,37.0,-100.00,North,10,6.0,15.0,77,0.00,,,0.25,0.000000,,2013-01-02 04:03:00,
2013-01-01 22:32:00,44.0,37.0,-100.00,North,10,6.0,15.0,77,0.00,,,0.25,0.000000,,2013-01-02 04:32:00,
2013-01-01 22:42:00,44.0,37.0,-100.00,North,10,6.0,15.0,77,0.00,,,0.25,0.000000,,2013-01-02 04:42:00,
2013-01-01 22:52:00,44.0,37.0,-100.00,North,10,6.0,15.0,77,0.00,,,0.25,0.000000,,2013-01-02 04:52:00,
2013-01-01 23:33:00,44.0,37.0,-100.00,North,351,6.0,13.0,77,0.00,,,0.11,0.000000,,2013-01-02 05:33:00,
2013-01-01 23:43:00,44.0,37.0,-100.00,North,351,6.0,13.0,77,0.00,,,0.11,0.000000,,2013-01-02 05:43:00,
2013-01-01 23:53:00,44.0,37.0,-100.00,North,351,6.0,13.0,77,0.00,,,0.11,0.000000,,2013-01-02 05:53:00,